Regional Weather Roundup
Issued by NWS

Home | Current Version | Previous Version | Graphics & Text | Print | Product List | Glossary On
Versions: 1 2 3 4 5 6 7 8 9 10 11 12 13 14 15 16 17 18 19 20 21 22 23 24 25 26 27 28 29 30 31 32 33 34 35 36 37 38 39 40 41 42 43 44 45 46 47 48 49 50
000
ASUS43 KLMK 222010
RWRKY
KENTUCKY REGIONAL WEATHER ROUNDUP
NATIONAL WEATHER SERVICE LOUISVILLE KY
300 PM EST SUN JAN 22 2017

NOTE "FAIR" INDICATES FEW OR NO CLOUDS BELOW 12,000 FEET
WITH NO SIGNIFICANT WEATHER AND/OR OBSTRUCTIONS TO VISIBILITY.

KYZ001>023-026-027-061>063-070>075-222100-
WESTERN AND SOUTH CENTRAL KENTUCKY

CITY           SKY/WX    TMP DP  RH WIND       PRES   REMARKS
PADUCAH        CLOUDY    61  52  72 N13       29.34F
HENDERSON      CLOUDY    57  50  77 NE7       29.39F
OWENSBORO      LGT RAIN  59  53  80 NE6       29.39F
HOPKINSVILLE   MOSUNNY   64  53  65 NE12      29.31F
BOWLING GREEN  CLOUDY    66  54  65 NE12      29.34F
GLASGOW        MOSUNNY   64  53  68 NE7       29.35F
$$

KYZ024-025-028>034-038-045-046-053-222100-
NORTH CENTRAL KENTUCKY

CITY           SKY/WX    TMP DP  RH WIND       PRES   REMARKS
LOUISVILLE/SDF CLOUDY    61  50  67 NW5       29.41F
LOUISVILLE/LOU CLOUDY    63  51  65 SE6       29.42F
FORT KNOX      LGT RAIN  54  54  99 NE6       29.40F
$$

KYZ035>037-039>044-047>052-055>060-089>105-222100-
NORTHEAST KENTUCKY

CITY           SKY/WX    TMP DP  RH WIND       PRES   REMARKS
LEXINGTON      CLOUDY    57  51  80 NE9       29.41F
COVINGTON      CLOUDY    61  50  67 NE14      29.44F
FRANKFORT      CLOUDY    59  49  69 NE6       29.41F
$$

KYZ054-064>069-076>088-106>120-222100-
SOUTHEAST KENTUCKY

CITY           SKY/WX    TMP DP  RH WIND       PRES   REMARKS
JACKSON        PTSUNNY   58  52  80 CALM      29.39F
LONDON         CLOUDY    58  51  78 S6        29.37F
SOMERSET       CLOUDY    54  54 100 CALM      29.38F
MIDDLESBORO    CLOUDY    59  56  90 CALM      29.38F
MONTICELLO     PTCLDY    59  54  82 N14       29.38F
$$




USA.gov is the U.S. government's official web portal to all federal, state and local government web resources and services.